Time,TemperatureF,DewpointF,PressureIn,WindDirection,WindDirectionDegrees,WindSpeedMPH,WindSpeedGustMPH,Humidity,HourlyPrecipIn,Conditions,Clouds,dailyrainin,SoftwareType,DateUTC
2013-07-29 00:00:00,51.0,49.0,-100.00,NW,322,4.0,-999.0,92,0.00,,,-99.99,,2013-07-29 07:00:00,
2013-07-29 00:23:00,51.0,49.0,-100.00,NW,322,4.0,-999.0,92,0.00,,,-99.99,,2013-07-29 07:23:00,
2013-07-29 00:33:00,51.0,49.0,-100.00,NW,322,4.0,-999.0,92,0.00,,,-99.99,,2013-07-29 07:33:00,
2013-07-29 00:53:00,51.0,49.0,-100.00,NW,322,4.0,-999.0,92,0.00,,,-99.99,,2013-07-29 07:53:00,
2013-07-29 01:00:00,51.0,49.0,-100.00,NW,321,4.0,-999.0,93,0.00,,,-99.99,,2013-07-29 08:00:00,
2013-07-29 01:33:00,51.0,49.0,-100.00,NW,321,4.0,-999.0,93,0.00,,,-99.99,,2013-07-29 08:33:00,
2013-07-29 01:42:00,51.0,49.0,-100.00,NW,321,4.0,-999.0,93,0.00,,,-99.99,,2013-07-29 08:42:00,
2013-07-29 01:52:00,51.0,49.0,-100.00,NW,321,4.0,-999.0,93,0.00,,,-99.99,,2013-07-29 08:52:00,
2013-07-29 02:00:00,50.0,48.0,-100.00,NW,326,2.0,-999.0,93,0.00,,,-99.99,,2013-07-29 09:00:00,
2013-07-29 02:33:00,50.0,48.0,-100.00,NW,326,2.0,-999.0,93,0.00,,,-99.99,,2013-07-29 09:33:00,
2013-07-29 02:53:00,50.0,48.0,-100.00,NW,326,2.0,-999.0,93,0.00,,,-99.99,,2013-07-29 09:53:00,
2013-07-29 03:00:00,50.0,48.0,-100.00,NNW,328,2.0,-999.0,93,0.00,,,-99.99,,2013-07-29 10:00:00,
2013-07-29 03:55:00,50.0,48.0,-100.00,NNW,328,2.0,-999.0,93,0.00,,,-99.99,,2013-07-29 10:55:00,
2013-07-29 04:38:00,50.0,48.0,-100.00,NNW,335,2.0,-999.0,93,0.00,,,-99.99,,2013-07-29 11:38:00,
2013-07-29 04:57:00,50.0,48.0,-100.00,NNW,335,2.0,-999.0,93,0.00,,,-99.99,,2013-07-29 11:57:00,
2013-07-29 05:37:00,51.0,49.0,-100.00,South,186,0.0,-999.0,93,0.00,,,-99.99,,2013-07-29 12:37:00,
2013-07-29 05:55:00,51.0,49.0,-100.00,South,186,0.0,-999.0,93,0.00,,,-99.99,,2013-07-29 12:55:00,
2013-07-29 06:37:00,51.0,49.0,-100.00,SW,215,2.0,-999.0,92,0.00,,,-99.99,,2013-07-29 13:37:00,
2013-07-29 06:45:00,51.0,49.0,-100.00,SW,215,2.0,-999.0,92,0.00,,,-99.99,,2013-07-29 13:45:00,
2013-07-29 06:55:00,51.0,49.0,-100.00,SW,215,2.0,-999.0,92,0.00,,,-99.99,,2013-07-29 13:55:00,
2013-07-29 07:00:00,51.0,48.0,-100.00,SSW,201,3.0,-999.0,91,0.00,,,-99.99,,2013-07-29 14:00:00,
2013-07-29 07:36:00,51.0,48.0,-100.00,SSW,201,3.0,-999.0,91,0.00,,,-99.99,,2013-07-29 14:36:00,
2013-07-29 07:56:00,51.0,48.0,-100.00,SSW,201,3.0,-999.0,91,0.00,,,-99.99,,2013-07-29 14:56:00,
2013-07-29 08:00:00,50.0,48.0,-100.00,NNW,341,2.0,-999.0,91,0.00,,,-99.99,,2013-07-29 15:00:00,
2013-07-29 08:38:00,50.0,48.0,-100.00,NNW,341,2.0,-999.0,91,0.00,,,-99.99,,2013-07-29 15:38:00,
2013-07-29 08:55:00,50.0,48.0,-100.00,NNW,341,2.0,-999.0,91,0.00,,,-99.99,,2013-07-29 15:55:00,
2013-07-29 09:00:00,51.0,48.0,-100.00,SSW,211,3.0,-999.0,88,0.00,,,-99.99,,2013-07-29 16:00:00,
2013-07-29 09:40:00,51.0,48.0,-100.00,SSW,211,3.0,-999.0,88,0.00,,,-99.99,,2013-07-29 16:40:00,
2013-07-29 09:47:00,51.0,48.0,-100.00,SSW,211,3.0,-999.0,88,0.00,,,-99.99,,2013-07-29 16:47:00,
2013-07-29 09:57:00,51.0,48.0,-100.00,SSW,211,3.0,-999.0,88,0.00,,,-99.99,,2013-07-29 16:57:00,
2013-07-29 10:42:00,54.0,48.0,-100.00,SE,128,2.0,-999.0,79,0.00,,,-99.99,,2013-07-29 17:42:00,
2013-07-29 10:58:00,54.0,48.0,-100.00,SE,128,2.0,-999.0,79,0.00,,,-99.99,,2013-07-29 17:58:00,
2013-07-29 11:00:00,57.0,50.0,-100.00,South,180,1.0,-999.0,75,0.00,,,-99.99,,2013-07-29 18:00:00,
2013-07-29 11:38:00,57.0,50.0,-100.00,South,180,1.0,-999.0,75,0.00,,,-99.99,,2013-07-29 18:38:00,
2013-07-29 11:47:00,57.0,50.0,-100.00,South,180,1.0,-999.0,75,0.00,,,-99.99,,2013-07-29 18:47:00,
2013-07-29 11:57:00,57.0,50.0,-100.00,South,180,1.0,-999.0,75,0.00,,,-99.99,,2013-07-29 18:57:00,
2013-07-29 12:56:00,59.0,50.0,-100.00,NW,326,3.0,-999.0,70,0.00,,,-99.99,,2013-07-29 19:56:00,
2013-07-29 13:38:00,64.0,51.0,-100.00,North,349,3.0,-999.0,61,0.00,,,-99.99,,2013-07-29 20:38:00,
2013-07-29 13:58:00,64.0,51.0,-100.00,North,349,3.0,-999.0,61,0.00,,,-99.99,,2013-07-29 20:58:00,
2013-07-29 14:00:00,67.0,52.0,-100.00,NW,326,5.0,-999.0,58,0.00,,,-99.99,,2013-07-29 21:00:00,
2013-07-29 14:49:00,67.0,52.0,-100.00,NW,326,5.0,-999.0,58,0.00,,,-99.99,,2013-07-29 21:49:00,
2013-07-29 14:58:00,67.0,52.0,-100.00,NW,326,5.0,-999.0,58,0.00,,,-99.99,,2013-07-29 21:58:00,
2013-07-29 15:00:00,67.0,53.0,-100.00,NW,318,4.0,-999.0,59,0.00,,,-99.99,,2013-07-29 22:00:00,
2013-07-29 15:55:00,67.0,53.0,-100.00,NW,318,4.0,-999.0,59,0.00,,,-99.99,,2013-07-29 22:55:00,
2013-07-29 16:35:00,66.0,53.0,-100.00,NW,316,4.0,-999.0,62,0.00,,,-99.99,,2013-07-29 23:35:00,
2013-07-29 16:46:00,66.0,53.0,-100.00,NW,316,4.0,-999.0,62,0.00,,,-99.99,,2013-07-29 23:46:00,
2013-07-29 17:00:00,64.0,52.0,-100.00,North,357,2.0,-999.0,64,0.00,,,-99.99,,2013-07-30 00:00:00,
2013-07-29 17:35:00,64.0,52.0,-100.00,North,357,2.0,-999.0,64,0.00,,,-99.99,,2013-07-30 00:35:00,
2013-07-29 17:50:00,64.0,52.0,-100.00,North,357,2.0,-999.0,64,0.00,,,-99.99,,2013-07-30 00:50:00,
2013-07-29 18:00:00,59.0,51.0,-100.00,NNW,333,5.0,-999.0,74,0.00,,,-99.99,,2013-07-30 01:00:00,
2013-07-29 18:38:00,59.0,51.0,-100.00,NNW,333,5.0,-999.0,74,0.00,,,-99.99,,2013-07-30 01:38:00,
2013-07-29 18:46:00,59.0,51.0,-100.00,NNW,333,5.0,-999.0,74,0.00,,,-99.99,,2013-07-30 01:46:00,
2013-07-29 18:58:00,59.0,51.0,-100.00,NNW,333,5.0,-999.0,74,0.00,,,-99.99,,2013-07-30 01:58:00,
2013-07-29 19:00:00,59.0,52.0,-100.00,East,101,1.0,-999.0,75,0.00,,,-99.99,,2013-07-30 02:00:00,
2013-07-29 19:38:00,59.0,52.0,-100.00,East,101,1.0,-999.0,75,0.00,,,-99.99,,2013-07-30 02:38:00,
2013-07-29 19:46:00,59.0,52.0,-100.00,East,101,1.0,-999.0,75,0.00,,,-99.99,,2013-07-30 02:46:00,
2013-07-29 19:55:00,59.0,52.0,-100.00,East,101,1.0,-999.0,75,0.00,,,-99.99,,2013-07-30 02:55:00,
2013-07-29 20:00:00,58.0,51.0,-100.00,NNW,337,4.0,-999.0,77,0.00,,,-99.99,,2013-07-30 03:00:00,
2013-07-29 20:36:00,58.0,51.0,-100.00,NNW,337,4.0,-999.0,77,0.00,,,-99.99,,2013-07-30 03:36:00,
2013-07-29 20:54:00,58.0,51.0,-100.00,NNW,337,4.0,-999.0,77,0.00,,,-99.99,,2013-07-30 03:54:00,
2013-07-29 21:00:00,56.0,51.0,-100.00,NNW,345,3.0,-999.0,83,0.00,,,-99.99,,2013-07-30 04:00:00,
2013-07-29 21:33:00,56.0,51.0,-100.00,NNW,345,3.0,-999.0,83,0.00,,,-99.99,,2013-07-30 04:33:00,
2013-07-29 21:53:00,56.0,51.0,-100.00,NNW,345,3.0,-999.0,83,0.00,,,-99.99,,2013-07-30 04:53:00,
2013-07-29 22:00:00,53.0,50.0,-100.00,NNW,329,5.0,-999.0,89,0.00,,,-99.99,,2013-07-30 05:00:00,
2013-07-29 22:33:00,53.0,50.0,-100.00,NNW,329,5.0,-999.0,89,0.00,,,-99.99,,2013-07-30 05:33:00,
2013-07-29 22:52:00,53.0,50.0,-100.00,NNW,329,5.0,-999.0,89,0.00,,,-99.99,,2013-07-30 05:52:00,
2013-07-29 23:33:00,53.0,50.0,-100.00,NNW,329,3.0,-999.0,91,0.00,,,-99.99,,2013-07-30 06:33:00,
2013-07-29 23:43:00,53.0,50.0,-100.00,NNW,329,3.0,-999.0,91,0.00,,,-99.99,,2013-07-30 06:43:00,
2013-07-29 23:53:00,53.0,50.0,-100.00,NNW,329,3.0,-999.0,91,0.00,,,-99.99,,2013-07-30 06:53:00,